sat.trackr.live / text

‹ back to catalog

STARLINK-3069

NORAD 49176 · 2021-082AY

PAYLOAD ACTIVE UNKNOWN

§ Identity

Operator
Country
US
Launch date
2021-09-14
Launch site
AFWTR
Launch vehicle
Mass (kg)
RCS (m²)

Purposes: comms

External: N2YO · Heavens-Above · Gunter

§ Orbital elements

Epoch: 2026-09-20T02:58:28.674336Z

Period
88.91 min
Inclination
69.9910°
Eccentricity
0.0007103
Mean motion
16.19691545 rev/d
Perigee alt
215.7 km
Apogee alt
225.1 km
Semi-major
6,598.5 km
B*
5.2528e-4
RAAN
101.4955°
Arg perigee
265.7922°
Mean anomaly
94.2487°
Rev number
27,664

§ Raw data

STARLINK-30691 49176U 21082AY  26263.12394299  .00984495  41884-5  52528-3 0  99922 49176  69.9910 101.4955 0007103 265.7922  94.2487 16.19691545276648

JSON: /api/v1/satellites/49176 · /tle

For live sub-satellite position, see the globe view (requires WebGL).

§ Visibility from observer

Set your observer location to see the next 7 days of passes ≥ 10°. The values pass through the URL so the page stays shareable.

No JS? Fill the form by hand. The geolocation button needs JavaScript.